Whitefield, NH

9:45 PM EDT on July 24, 2017 (GMT -0400)
Mount Washington Regional

Weather History for KHIE - October, 2012

Change the Weather History Date:

Friday, October 26, 2012

  Actual Average Record
Temperature  
Mean Temperature 54 °F -  
Max Temperature 73 °F 48 °F 73 °F (2012)
Min Temperature 36 °F 26 °F 14 °F (1997)
Degree Days  
Heating Degree Days 10    
Growing Degree Days 4 (Base 50)    
Moisture  
Dew Point 43 °F    
Average Humidity 74    
Maximum Humidity 93    
Minimum Humidity 42    
Precipitation  
Precipitation 0.00 in - - ()
Sea Level Pressure  
Sea Level Pressure 30.17 in    
Wind  
Wind Speed 0 mph (West)    
Max Wind Speed 5 mph    
Max Gust Speed -    
Visibility 10 miles    
Events      
Averages and records for this station are not official NWS values.
T = Trace of Precipitation, MM = Missing Value Source: NWS Daily Summary

Daily Weather History Graph

Daily Weather History Graph

Search for Another Location

Airport or City:

Trip Planner

Search our weather history database for the weather conditions in past years. The results will help you decide how hot, cold, wet, or windy it might be!

Date:

Astronomy

Oct. 26, 2012 Rise Set
Actual Time 7:15 AM EDT 5:43 PM EDT
Civil Twilight 6:46 AM EDT 6:13 PM EDT
Nautical Twilight 6:12 AM EDT 6:47 PM EDT
Astronomical Twilight 5:38 AM EDT 7:20 PM EDT
Moon 4:02 PM EDT (10/26) 4:03 AM EDT (10/26)
Length of Visible Light 11h 27m
Length of Day
10h 27m
Waxing Gibbous, 91% of the Moon is Illuminated
Oct 26
Waxing Gibbous
Oct 29
Full
Nov 6
Last Quarter
Nov 13
New
Nov 20
First Quarter

Hourly Weather History & Observations

Time (EDT) Temp. Dew Point Humidity Pressure Visibility Wind Dir Wind Speed Gust Speed Precip Events Conditions
2:52 AM 42.1 °F 39.0 °F 89% 30.23 in 10.0 mi Calm Calm - N/A   Partly Cloudy
3:52 AM 39.9 °F 37.0 °F 89% 30.22 in 10.0 mi Calm Calm - N/A   Clear
4:52 AM 37.9 °F 35.1 °F 89% 30.23 in 10.0 mi Calm Calm - N/A   Clear
5:52 AM 37.0 °F 34.0 °F 89% 30.22 in 10.0 mi Calm Calm - N/A   Clear
6:52 AM 36.0 °F 33.1 °F 89% 30.22 in 10.0 mi Calm Calm - N/A   Clear
7:52 AM 37.0 °F 34.0 °F 89% 30.24 in 10.0 mi Calm Calm - N/A   Clear
8:52 AM 43.0 °F 37.9 °F 82% 30.25 in 10.0 mi Calm Calm - N/A   Clear
9:52 AM 51.1 °F 41.0 °F 68% 30.22 in 10.0 mi Calm Calm - N/A   Clear
10:52 AM 57.0 °F 42.1 °F 57% 30.21 in 10.0 mi Calm Calm - N/A   Clear
11:52 AM 62.1 °F 45.0 °F 53% 30.19 in 10.0 mi Calm Calm - N/A   Clear
12:52 PM 66.9 °F 46.9 °F 49% 30.15 in 10.0 mi Calm Calm - N/A   Clear
1:52 PM 70.0 °F 48.0 °F 46% 30.12 in 10.0 mi Calm Calm - N/A   Clear
2:52 PM 73.0 °F 48.9 °F 42% 30.11 in 10.0 mi Calm Calm - N/A   Clear
3:52 PM 73.0 °F 51.1 °F 46% 30.11 in 10.0 mi WSW 3.5 mph - N/A   Clear
4:52 PM 70.0 °F 51.1 °F 51% 30.10 in 10.0 mi West 4.6 mph - N/A   Clear
5:52 PM 62.1 °F 52.0 °F 70% 30.11 in 10.0 mi Calm Calm - N/A   Clear
6:52 PM 54.0 °F 50.0 °F 86% 30.13 in 10.0 mi Calm Calm - N/A   Clear
7:52 PM 51.1 °F 48.0 °F 89% 30.14 in 10.0 mi Calm Calm - N/A   Clear
8:52 PM 48.0 °F 45.0 °F 89% 30.16 in 10.0 mi Calm Calm - N/A   Clear
9:52 PM 46.9 °F 43.0 °F 86% 30.15 in 9.0 mi Calm Calm - N/A   Clear
10:52 PM 43.0 °F 41.0 °F 93% 30.14 in 9.0 mi Calm Calm - N/A   Partly Cloudy
11:52 PM 44.1 °F 42.1 °F 93% 30.14 in 10.0 mi Calm Calm - N/A   Partly Cloudy